sat.trackr.live / text

‹ back to catalog

STARLINK-36826

NORAD 67885 · 2026-035G

PAYLOAD ACTIVE UNKNOWN

§ Identity

Operator
Country
US
Launch date
2026-02-21
Launch site
AFWTR
Launch vehicle
Mass (kg)
RCS (m²)

Purposes: comms

External: N2YO · Heavens-Above · Gunter

§ Orbital elements

Epoch: 2026-05-25T05:07:39.499104Z

Period
93.91 min
Inclination
97.2847°
Eccentricity
0.0000950
Mean motion
15.33461484 rev/d
Perigee alt
464.8 km
Apogee alt
466.1 km
Semi-major
6,843.6 km
B*
9.5789e-4
RAAN
78.7074°
Arg perigee
95.1339°
Mean anomaly
265.0012°
Rev number
1,571

§ Raw data

STARLINK-368261 67885U 26035G   26145.21365161  .00030992  00000+0  95789-3 0  99962 67885  97.2847  78.7074 0000950  95.1339 265.0012 15.33461484 15719

JSON: /api/v1/satellites/67885 · /tle

For live sub-satellite position, see the globe view (requires WebGL).

§ Visibility from observer

Set your observer location to see the next 7 days of passes ≥ 10°. The values pass through the URL so the page stays shareable.

No JS? Fill the form by hand. The geolocation button needs JavaScript.